This is the latest recevied weather packets stored in our database for station/object DJ2DS-13. If no packets are shown the sender has not sent any weather packets the latest 10 day(s).
| Time | Temp. | Humidity | Pressure | Rain* | Wind** | Luminosity | Snow |
|---|---|---|---|---|---|---|---|
| 1777649818 | 23.33° C | 37% | 1022.1 hPa | 0 mm | - | 434 W/m² | - |
| 1777649517 | 23.33° C | 36% | 1022.1 hPa | 0 mm | - | 443 W/m² | - |
| 1777649218 | 23.33° C | 36% | 1022.3 hPa | 0 mm | - | 455 W/m² | - |
| 1777648915 | 23.33° C | 35% | 1022.3 hPa | 0 mm | - | 468 W/m² | - |
| 1777648616 | 23.33° C | 36% | 1022.4 hPa | 0 mm | - | 477 W/m² | - |
| 1777648315 | 23.33° C | 35% | 1022.6 hPa | 0 mm | - | 489 W/m² | - |
| 1777648015 | 23.33° C | 37% | 1022.5 hPa | 0 mm | - | 501 W/m² | - |
| 1777647715 | 22.78° C | 36% | 1022.6 hPa | 0 mm | - | 512 W/m² | - |
| 1777647417 | 22.78° C | 37% | 1022.8 hPa | 0 mm | - | 521 W/m² | - |
| 1777647115 | 23.33° C | 35% | 1022.8 hPa | 0 mm | - | 533 W/m² | - |
| 1777646816 | 22.78° C | 35% | 1022.7 hPa | 0 mm | - | 542 W/m² | - |
| 1777646514 | 22.78° C | 37% | 1022.8 hPa | 0 mm | - | 552 W/m² | - |
| 1777646214 | 22.78° C | 35% | 1022.8 hPa | 0 mm | - | 563 W/m² | - |
| 1777645915 | 22.78° C | 38% | 1022.8 hPa | 0 mm | - | 572 W/m² | - |
| 1777645614 | 22.78° C | 35% | 1023 hPa | 0 mm | - | 582 W/m² | - |
| 1777645313 | 22.78° C | 33% | 1023 hPa | 0 mm | - | 593 W/m² | - |
| 1777645014 | 22.78° C | 36% | 1023 hPa | 0 mm | - | 598 W/m² | - |
| 1777644713 | 22.78° C | 36% | 1023 hPa | 0 mm | - | 607 W/m² | - |
| 1777644410 | 22.78° C | 37% | 1023.1 hPa | 0 mm | - | 615 W/m² | - |
| 1777644111 | 22.78° C | 39% | 1023.2 hPa | 0 mm | - | 624 W/m² | - |
| 1777643811 | 22.78° C | 38% | 1023.2 hPa | 0 mm | - | 633 W/m² | - |
| 1777643511 | 22.78° C | 38% | 1023.3 hPa | 0 mm | - | 638 W/m² | - |
| 1777643210 | 22.78° C | 36% | 1023.4 hPa | 0 mm | - | 647 W/m² | - |
| 1777642911 | 22.78° C | 39% | 1023.3 hPa | 0 mm | - | 658 W/m² | - |
| 1777642611 | 22.78° C | 38% | 1023.4 hPa | 0 mm | - | 663 W/m² | - |
* Rain latest hour (hover to see other rain measurements)
** Current wind speed in m/s (hover to see current wind gust speed)